[[{"header":{"parameterUnit":"m.s-1","parameterCategory":1,"la1":30.2991,"la2":30.254,"lo1":-89.0895,"lo2":-89.0444,"dy":0.0017,"dx":0.0017,"nx":28,"ny":28,"refTime":"2024-07-22T21:00:00:Z","depth":0,"parameterNumber":2,"parameterNumberName":"U-component_of_WINDS"},"data":[0,0,0,0,0,0,0,0,0,0,0,0,0,0,0,0,0,0,0,0,0,0,0,0,0,0,0,0,0,0,0,0,0,0,0,0,0,0,0,0,0,0,0,0,0,0,0,0,0,0,0,0,0,0,0,0,0,0,2.6231,2.6233,0,2.6397,2.6399,2.6401,2.6421,2.642,2.6418,2.6416,2.6586,2.6592,2.6598,0,0,0,0,0,0,0,0,0,0,0,0,0,2.5931,2.5936,2.6231,2.6233,2.6235,2.6397,2.6399,2.6401,2.6422,2.642,2.6418,2.6416,2.6584,2.6591,2.6598,0,0,0,0,0,0,0,0,0,0,0,0,0,2.6076,2.5938,2.623,2.6265,2.6269,2.6396,2.6399,2.6402,2.6422,2.642,2.6417,2.6415,2.6582,2.659,2.6599,2.6704,0,0,2.6627,2.6631,0,0,0,0,0,0,0,0,2.6067,2.6086,2.6257,2.6262,2.6268,2.6386,2.6356,2.6503,2.6423,2.6364,2.6416,2.6414,2.6521,2.6535,2.6572,2.6711,2.6719,2.6628,2.6633,2.6637,2.664,0,0,0,0,0,0,0,2.6057,2.6079,2.6297,2.626,2.6266,2.6272,2.6289,2.6384,2.6454,2.6369,2.6371,2.639,2.6524,2.6563,2.6576,2.6721,2.6627,2.6635,2.6641,2.6645,2.6956,2.6959,0,0,0,0,0,0,2.6041,2.6071,2.6291,2.6302,2.616,2.6279,2.6299,2.6351,2.6453,2.6467,2.6392,2.6391,2.6549,2.6565,2.6582,2.6711,2.6637,2.6645,2.6651,2.6953,2.6957,2.696,0,0,0,0,0,0,2.6034,2.606,2.6285,2.6187,2.6216,2.6287,2.6344,2.6355,2.6394,2.6471,2.6483,2.6419,2.6547,2.6569,2.6673,2.6717,2.6649,2.6658,2.695,2.6954,2.6958,2.697,0,0,0,0,0,0,2.6026,2.6058,2.6098,2.6188,2.6221,2.6373,2.6347,2.636,2.641,2.6409,2.65,2.6512,2.6547,2.666,2.6682,2.6729,2.6665,2.6946,2.6952,2.6957,2.6966,2.6975,2.6982,0,0,0,0,0,2.6015,2.6095,2.61,2.6127,2.6273,2.6376,2.6395,2.6434,2.6413,2.6454,2.6504,2.6509,2.6709,2.667,2.6696,2.6745,2.6944,2.695,2.6956,2.6963,2.6973,2.6981,0,0,0,0,0,0,2.6008,2.6107,2.6114,2.6225,2.6292,2.6379,2.6432,2.6443,2.6517,2.6513,2.6558,2.6578,2.6681,2.6724,2.6679,2.6852,2.6824,2.6836,2.682,2.6831,2.6838,2.6826,2.6672,0,0,0,0,0,2.602,2.6095,2.6177,2.6267,2.6301,2.6361,2.6407,2.6431,2.6502,2.653,2.6587,2.6656,2.6734,2.6785,2.6861,2.6973,2.6993,2.702,2.7027,2.7033,2.7043,2.7106,2.7118,2.6981,2.6981,2.6981,0,0,2.6044,2.6107,2.6152,2.6268,2.6322,2.64,2.6384,2.6466,2.6524,2.6543,2.6645,2.6689,2.6769,2.6878,2.6928,2.6916,2.7085,2.7041,2.7045,2.7052,2.7114,2.7126,2.7138,2.6985,2.6984,2.6984,0,0,2.6128,2.6183,2.6264,2.632,2.6403,2.6443,2.6462,2.6548,2.6578,2.6682,2.6698,2.6767,2.6901,2.6957,2.7003,2.711,2.7117,2.7133,2.7173,2.7233,2.7244,2.7254,2.7292,2.7306,2.7142,2.7143,2.7143,0,2.6147,2.6264,2.6305,2.6387,2.6438,2.6459,2.6542,2.6593,2.6697,2.6731,2.6717,2.6886,2.6941,2.7063,2.7089,2.7126,2.715,2.7123,2.724,2.725,2.726,2.7297,2.7311,2.7144,2.7144,2.7144,2.7143,0,2.6285,2.6366,2.6422,2.6522,2.6579,2.6661,2.6714,2.6766,2.6786,2.6827,2.6933,2.6999,2.709,2.7121,2.7141,2.7247,2.7237,2.723,2.7203,2.7273,2.7309,2.7323,2.7146,2.7145,2.7145,2.7145,0,0,2.6368,2.649,2.651,2.6556,2.665,2.6713,2.6797,2.6886,2.693,2.7001,2.7072,2.7186,2.7181,2.7233,2.7259,2.7313,2.7393,2.73,2.7303,2.7315,2.7515,2.7519,2.7535,2.7399,2.7402,2.7405,2.7508,0,2.6463,2.6612,2.6651,2.6778,2.6854,2.6875,2.6948,2.7013,2.7054,2.7125,2.717,2.7249,2.7237,2.7268,2.7322,2.7372,2.7434,2.7365,2.7466,2.7469,2.7445,2.7553,2.7558,2.7653,2.7522,2.7525,2.7527,0,2.6593,2.6668,2.6802,2.6887,2.692,2.6984,2.707,2.7136,2.7211,2.7237,2.7296,2.7318,2.7406,2.7374,2.7496,2.7449,2.7492,2.7523,2.7528,2.7539,2.7502,2.7567,2.7684,2.7698,2.7549,2.7547,2.7545,0,2.6641,2.6775,2.6873,2.6911,2.7012,2.7057,2.7102,2.7174,2.7225,2.73,2.7334,2.7417,2.7463,2.7527,2.7571,2.7544,2.769,2.7661,2.7714,2.7713,2.7743,2.7741,2.7868,2.7771,2.7771,2.7771,2.7771,0,2.6743,2.6824,2.6895,2.6956,2.7048,2.7092,2.7182,2.7227,2.7292,2.7361,2.7385,2.7449,2.7503,2.7575,2.761,2.7706,2.7727,2.775,2.7759,2.7748,2.7745,2.7777,2.7772,2.7775,2.7774,2.7773,2.7772,0,2.6811,2.6862,2.6971,2.7058,2.7082,2.7146,2.7221,2.728,2.7322,2.741,2.7433,2.7499,2.7585,2.7635,2.7743,2.7767,2.7874,2.7879,2.7848,2.7852,2.7902,2.7896,2.8054,2.8078,2.7965,2.7966,2.7967,0,2.6873,2.6936,2.703,2.7079,2.7124,2.7201,2.7254,2.73,2.7354,2.7445,2.7494,2.7581,2.7654,2.7791,2.7848,2.7932,2.7939,2.7989,2.7952,2.794,2.794,2.7936,2.7943,2.7995,2.7996,2.7997,2.7998,0,2.6977,2.6999,2.7074,2.7158,2.7221,2.7289,2.7357,2.7395,2.7453,2.7513,2.7601,2.7658,2.7769,2.7856,2.7944,2.799,2.8004,2.8009,2.8026,2.8016,2.7995,2.8007,2.7866,2.8005,2.8004,2.8004,2.8003,2.8003,2.7044,2.7102,2.7177,2.726,2.7316,2.738,2.744,2.749,2.7564,2.7659,2.7682,2.7775,2.7849,2.7969,2.8018,2.8091,2.8083,2.8107,2.8113,2.8118,2.812,2.7984,2.8108,2.8107,2.8107,2.8107,2.8107,0,2.715,2.7199,2.7275,2.737,2.7435,2.7443,2.7519,2.7573,2.7655,2.7723,2.7794,2.7896,2.7981,2.8046,2.8133,2.8179,2.8188,2.82,2.8197,2.8208,2.8122,2.8099,2.8192,2.8192,2.8192,2.8192,2.8192,2.8192,2.7212,2.731,2.7341,2.7467,2.7517,2.7608,2.7651,2.771,2.7764,2.7878,2.7948,2.799,2.8057,2.8149,2.8227,2.8244,2.8275,2.8287,2.8304,2.8223,2.8214,2.8205,2.8184,2.8293,2.8293,2.8384,2.8385,2.8386]},{"header":{"parameterUnit":"m.s-1","parameterCategory":1,"la1":30.2991,"la2":30.254,"lo1":-89.0895,"lo2":-89.0444,"dy":0.0017,"dx":0.0017,"nx":28,"ny":28,"refTime":"2024-07-22T21:00:00:Z","depth":0,"parameterNumber":3,"parameterNumberName":"V-component_of_WINDS"},"data":[0,0,0,0,0,0,0,0,0,0,0,0,0,0,0,0,0,0,0,0,0,0,0,0,0,0,0,0,0,0,0,0,0,0,0,0,0,0,0,0,0,0,0,0,0,0,0,0,0,0,0,0,0,0,0,0,0,0,-3.4324,-3.4324,0,-3.4262,-3.4261,-3.4261,-3.4194,-3.4193,-3.4192,-3.4191,-3.4125,-3.4124,-3.4123,0,0,0,0,0,0,0,0,0,0,0,0,0,-3.4381,-3.438,-3.4324,-3.4323,-3.4323,-3.4262,-3.4261,-3.426,-3.4194,-3.4193,-3.4192,-3.4191,-3.4125,-3.4124,-3.4123,0,0,0,0,0,0,0,0,0,0,0,0,0,-3.4341,-3.438,-3.4324,-3.4282,-3.4278,-3.4262,-3.4261,-3.426,-3.4194,-3.4193,-3.4192,-3.419,-3.4125,-3.4124,-3.4123,-3.4142,0,0,-3.4119,-3.4118,0,0,0,0,0,0,0,0,-3.4343,-3.4339,-3.4289,-3.4285,-3.428,-3.4234,-3.4257,-3.4221,-3.4195,-3.4226,-3.4191,-3.419,-3.4162,-3.4158,-3.4149,-3.4139,-3.4136,-3.4118,-3.4118,-3.4117,-3.4117,0,0,0,0,0,0,0,-3.4346,-3.4341,-3.4299,-3.4289,-3.4283,-3.4265,-3.4258,-3.425,-3.4203,-3.4223,-3.4218,-3.4212,-3.4159,-3.415,-3.4147,-3.4135,-3.4118,-3.4117,-3.4116,-3.4116,-3.4133,-3.4134,0,0,0,0,0,0,-3.4356,-3.4344,-3.4301,-3.4298,-3.4309,-3.4265,-3.4257,-3.4251,-3.4203,-3.4194,-3.4213,-3.4209,-3.4153,-3.4149,-3.4144,-3.4161,-3.4117,-3.4116,-3.4115,-3.4132,-3.4134,-3.4135,0,0,0,0,0,0,-3.4357,-3.4353,-3.4304,-3.4319,-3.4312,-3.4266,-3.4259,-3.425,-3.4241,-3.4195,-3.4186,-3.4213,-3.4152,-3.4146,-3.4142,-3.4158,-3.4115,-3.4114,-3.4131,-3.4132,-3.4134,-3.4196,0,0,0,0,0,0,-3.4359,-3.4354,-3.4362,-3.432,-3.4311,-3.4305,-3.426,-3.425,-3.4239,-3.4233,-3.4192,-3.4184,-3.4151,-3.4145,-3.4141,-3.4155,-3.4113,-3.4129,-3.4131,-3.4134,-3.4193,-3.42,-3.4206,0,0,0,0,0,-3.4362,-3.4383,-3.4363,-3.4358,-3.4321,-3.4306,-3.4301,-3.4263,-3.4241,-3.4248,-3.4217,-3.4186,-3.4157,-3.4145,-3.414,-3.4154,-3.4128,-3.4131,-3.4133,-3.4189,-3.4199,-3.4206,0,0,0,0,0,0,-3.4427,-3.4376,-3.4354,-3.4362,-3.4339,-3.4295,-3.4303,-3.4274,-3.4256,-3.4251,-3.4203,-3.4194,-3.4195,-3.4174,-3.4162,-3.4168,-3.4137,-3.4139,-3.4182,-3.419,-3.4197,-3.4201,-3.4112,0,0,0,0,0,-3.4443,-3.4436,-3.4392,-3.4403,-3.4392,-3.435,-3.4342,-3.4314,-3.4288,-3.4277,-3.4247,-3.4221,-3.4206,-3.4197,-3.4181,-3.4189,-3.4177,-3.4196,-3.4203,-3.4209,-3.4211,-3.4209,-3.4216,-3.4144,-3.4144,-3.4144,0,0,-3.4475,-3.4446,-3.4445,-3.4415,-3.4394,-3.4386,-3.4342,-3.4337,-3.4329,-3.4276,-3.427,-3.4247,-3.4214,-3.4216,-3.4215,-3.4199,-3.4228,-3.4212,-3.4218,-3.4216,-3.4213,-3.422,-3.4226,-3.4146,-3.4146,-3.4146,0,0,-3.4528,-3.4507,-3.4513,-3.4492,-3.446,-3.4431,-3.4432,-3.4392,-3.4374,-3.4368,-3.4326,-3.4316,-3.4292,-3.4269,-3.4255,-3.4296,-3.4265,-3.4292,-3.4328,-3.4327,-3.4333,-3.4337,-3.4349,-3.4354,-3.4295,-3.4295,-3.4295,0,-3.4571,-3.4559,-3.4519,-3.4515,-3.4502,-3.4453,-3.4457,-3.4438,-3.4403,-3.4393,-3.4376,-3.4341,-3.4317,-3.431,-3.432,-3.4311,-3.4308,-3.4296,-3.4336,-3.434,-3.4343,-3.4354,-3.4358,-3.4298,-3.4298,-3.4297,-3.4297,0,-3.4612,-3.4604,-3.4612,-3.4579,-3.4567,-3.4567,-3.4524,-3.4516,-3.4489,-3.4461,-3.4452,-3.442,-3.4395,-3.4391,-3.4365,-3.438,-3.437,-3.4345,-3.4313,-3.4354,-3.4363,-3.4367,-3.4303,-3.4302,-3.4301,-3.43,0,0,-3.4706,-3.4649,-3.4652,-3.4635,-3.4595,-3.4587,-3.4583,-3.4558,-3.4551,-3.4527,-3.452,-3.4499,-3.4474,-3.4458,-3.4428,-3.4428,-3.4458,-3.4402,-3.44,-3.4411,-3.4468,-3.4485,-3.4491,-3.4437,-3.4438,-3.4438,-3.4469,0,-3.4751,-3.4742,-3.4704,-3.4706,-3.4696,-3.4649,-3.4645,-3.4618,-3.4591,-3.4577,-3.4547,-3.4531,-3.4501,-3.449,-3.4488,-3.4455,-3.4468,-3.4452,-3.4427,-3.4427,-3.4435,-3.4496,-3.4516,-3.4547,-3.4473,-3.4473,-3.4474,0,-3.4802,-3.4781,-3.4782,-3.4739,-3.4733,-3.4731,-3.4703,-3.4692,-3.4659,-3.4639,-3.4619,-3.4585,-3.4575,-3.4546,-3.4529,-3.4519,-3.4506,-3.4488,-3.4488,-3.4483,-3.4452,-3.449,-3.4556,-3.456,-3.4479,-3.4479,-3.4478,0,-3.4866,-3.4838,-3.4834,-3.4821,-3.4772,-3.4771,-3.475,-3.4716,-3.4703,-3.4678,-3.4668,-3.4643,-3.4628,-3.4607,-3.4566,-3.4549,-3.4552,-3.4521,-3.4532,-3.4533,-3.4535,-3.4535,-3.4597,-3.453,-3.453,-3.453,-3.453,0,-3.4919,-3.492,-3.4862,-3.486,-3.4859,-3.4814,-3.4814,-3.4788,-3.4758,-3.4747,-3.4705,-3.4695,-3.4642,-3.4625,-3.4593,-3.4581,-3.4576,-3.4557,-3.4548,-3.456,-3.4562,-3.4549,-3.4545,-3.4531,-3.4531,-3.4531,-3.453,0,-3.499,-3.4952,-3.4944,-3.4898,-3.4886,-3.4887,-3.4846,-3.484,-3.481,-3.4797,-3.4791,-3.4743,-3.472,-3.4677,-3.4643,-3.462,-3.4615,-3.4601,-3.4627,-3.4621,-3.4634,-3.4632,-3.4689,-3.4692,-3.4626,-3.4626,-3.4627,0,-3.5026,-3.5026,-3.4979,-3.4969,-3.495,-3.4935,-3.4921,-3.4876,-3.4862,-3.4823,-3.4821,-3.4796,-3.4773,-3.4739,-3.4699,-3.4671,-3.4654,-3.4676,-3.465,-3.466,-3.4651,-3.465,-3.4648,-3.4681,-3.4682,-3.4683,-3.4684,0,-3.5091,-3.5071,-3.5053,-3.5028,-3.5012,-3.499,-3.4965,-3.4958,-3.4907,-3.4893,-3.487,-3.4852,-3.4816,-3.479,-3.4756,-3.4731,-3.4697,-3.4692,-3.4693,-3.4704,-3.4718,-3.4707,-3.464,-3.4691,-3.469,-3.469,-3.4689,-3.4689,-3.5143,-3.514,-3.5106,-3.5086,-3.5063,-3.5039,-3.5031,-3.4999,-3.498,-3.4948,-3.4922,-3.49,-3.4863,-3.4814,-3.4791,-3.4771,-3.4755,-3.4757,-3.4757,-3.4758,-3.4761,-3.4723,-3.4764,-3.4764,-3.4764,-3.4764,-3.4764,0,-3.5204,-3.5179,-3.5162,-3.5128,-3.5111,-3.5083,-3.5053,-3.504,-3.5022,-3.4992,-3.497,-3.4941,-3.4914,-3.4872,-3.4841,-3.4833,-3.4816,-3.4826,-3.4825,-3.4819,-3.4778,-3.478,-3.4839,-3.4839,-3.4839,-3.4839,-3.4839,-3.4839,-3.5233,-3.5225,-3.5201,-3.5179,-3.5154,-3.5133,-3.5118,-3.5095,-3.507,-3.5041,-3.5019,-3.4992,-3.4955,-3.492,-3.4893,-3.4881,-3.487,-3.4884,-3.4867,-3.4829,-3.4822,-3.4816,-3.4816,-3.4883,-3.4883,-3.4908,-3.4909,-3.4909]}]]